Year,Month,Day,Hour,Minute,Value (Times are PST for temperature in C)
2015,12,19,00,00,1.90
2015,12,19,00,01,2.00
2015,12,19,00,02,2.00
2015,12,19,00,03,2.10
2015,12,19,00,04,2.20
2015,12,19,00,05,2.30
2015,12,19,00,06,2.40
2015,12,19,00,07,2.50
2015,12,19,00,08,2.60
2015,12,19,00,09,2.60
2015,12,19,00,10,2.70
2015,12,19,00,11,2.70
2015,12,19,00,12,2.70
2015,12,19,00,13,2.70
2015,12,19,00,14,2.60
2015,12,19,00,15,2.60
2015,12,19,00,16,2.50
2015,12,19,00,17,2.50
2015,12,19,00,18,2.40
2015,12,19,00,19,2.40
2015,12,19,00,20,2.40
2015,12,19,00,21,2.30
2015,12,19,00,22,2.30
2015,12,19,00,23,2.30
2015,12,19,00,24,2.40
2015,12,19,00,25,2.40
2015,12,19,00,26,2.40
2015,12,19,00,27,2.50
2015,12,19,00,28,2.50
2015,12,19,00,29,2.60
2015,12,19,00,30,2.60
2015,12,19,00,31,2.70
2015,12,19,00,32,2.70
2015,12,19,00,33,2.70
2015,12,19,00,34,2.70
2015,12,19,00,35,2.80
2015,12,19,00,36,2.80
2015,12,19,00,37,2.80
2015,12,19,00,38,2.80
2015,12,19,00,39,2.80
2015,12,19,00,40,2.80
2015,12,19,00,41,2.80
2015,12,19,00,42,2.80
2015,12,19,00,43,2.80
2015,12,19,00,44,2.80
2015,12,19,00,45,2.80
2015,12,19,00,46,2.70
2015,12,19,00,47,2.80
2015,12,19,00,48,2.80
2015,12,19,00,49,2.80
2015,12,19,00,50,2.80
2015,12,19,00,51,2.80
2015,12,19,00,52,2.80
2015,12,19,00,53,2.80
2015,12,19,00,54,2.80
2015,12,19,00,55,2.80
2015,12,19,00,56,2.80
2015,12,19,00,57,2.80
2015,12,19,00,58,2.80
2015,12,19,00,59,2.80
2015,12,19,01,00,2.80
2015,12,19,01,01,2.80
2015,12,19,01,02,2.80
2015,12,19,01,03,2.80
2015,12,19,01,04,2.80
2015,12,19,01,05,2.80
2015,12,19,01,06,2.80
2015,12,19,01,07,2.80
2015,12,19,01,08,2.80
2015,12,19,01,09,2.80
2015,12,19,01,10,2.80
2015,12,19,01,11,2.80
2015,12,19,01,12,2.70
2015,12,19,01,13,2.70
2015,12,19,01,14,2.70
2015,12,19,01,15,2.70
2015,12,19,01,16,2.70
2015,12,19,01,17,2.70
2015,12,19,01,18,2.70
2015,12,19,01,19,2.70
2015,12,19,01,20,2.70
2015,12,19,01,21,2.80
2015,12,19,01,22,2.80
2015,12,19,01,23,2.80
2015,12,19,01,24,2.80
2015,12,19,01,25,2.80
2015,12,19,01,26,2.80
2015,12,19,01,27,2.80
2015,12,19,01,28,2.80
2015,12,19,01,29,2.80
2015,12,19,01,30,2.80
2015,12,19,01,31,2.80
2015,12,19,01,32,2.80
2015,12,19,01,33,2.80
2015,12,19,01,34,2.80
2015,12,19,01,35,2.80
2015,12,19,01,36,2.90
2015,12,19,01,37,2.80
2015,12,19,01,38,2.80
2015,12,19,01,39,2.80
2015,12,19,01,40,2.80
2015,12,19,01,41,2.80
2015,12,19,01,42,2.70
2015,12,19,01,43,2.70
2015,12,19,01,44,2.70
2015,12,19,01,45,2.70
2015,12,19,01,46,2.70
2015,12,19,01,47,2.70
2015,12,19,01,48,2.60
2015,12,19,01,49,2.60
2015,12,19,01,50,2.60
2015,12,19,01,51,2.60
2015,12,19,01,52,2.60
2015,12,19,01,53,2.60
2015,12,19,01,54,2.70
2015,12,19,01,55,2.70
2015,12,19,01,56,2.70
2015,12,19,01,57,2.70
2015,12,19,01,58,2.70
2015,12,19,01,59,2.70
2015,12,19,02,00,2.80
2015,12,19,02,01,2.80
2015,12,19,02,02,2.80
2015,12,19,02,03,2.80
2015,12,19,02,04,2.80
2015,12,19,02,05,2.80
2015,12,19,02,06,2.80
2015,12,19,02,07,2.80
2015,12,19,02,08,2.80
2015,12,19,02,09,2.80
2015,12,19,02,10,2.80
2015,12,19,02,11,2.80
2015,12,19,02,12,2.80
2015,12,19,02,13,2.80
2015,12,19,02,14,2.80
2015,12,19,02,15,2.80
2015,12,19,02,16,2.80
2015,12,19,02,17,2.80
2015,12,19,02,18,2.70
2015,12,19,02,19,2.70
2015,12,19,02,20,2.70
2015,12,19,02,21,2.70
2015,12,19,02,22,2.70
2015,12,19,02,23,2.70
2015,12,19,02,24,2.70
2015,12,19,02,25,2.70
2015,12,19,02,26,2.70
2015,12,19,02,27,2.70
2015,12,19,02,28,2.80
2015,12,19,02,29,2.80
2015,12,19,02,30,2.80
2015,12,19,02,31,2.90
2015,12,19,02,32,2.90
2015,12,19,02,33,2.90
2015,12,19,02,34,2.90
2015,12,19,02,35,2.90
2015,12,19,02,36,2.90
2015,12,19,02,37,2.90
2015,12,19,02,38,2.90
2015,12,19,02,39,2.90
2015,12,19,02,40,2.90
2015,12,19,02,41,2.90
2015,12,19,02,42,3.00
2015,12,19,02,43,3.00
2015,12,19,02,44,3.00
2015,12,19,02,45,3.00
2015,12,19,02,46,3.00
2015,12,19,02,47,3.10
2015,12,19,02,48,3.10
2015,12,19,02,49,3.10
2015,12,19,02,50,3.10
2015,12,19,02,51,3.10
2015,12,19,02,52,3.10
2015,12,19,02,53,3.10
2015,12,19,02,54,3.10
2015,12,19,02,55,3.10
2015,12,19,02,56,3.10
2015,12,19,02,57,3.10
2015,12,19,02,58,3.10
2015,12,19,02,59,3.10
2015,12,19,03,00,3.10
2015,12,19,03,01,3.10
2015,12,19,03,02,3.10
2015,12,19,03,06,3.10
2015,12,19,03,07,3.00
2015,12,19,03,08,3.00
2015,12,19,03,09,3.00
2015,12,19,03,10,3.00
2015,12,19,03,11,3.00
2015,12,19,03,12,3.00
2015,12,19,03,13,3.10
2015,12,19,03,14,3.00
2015,12,19,03,15,3.00
2015,12,19,03,16,3.00
2015,12,19,03,17,3.00
2015,12,19,03,18,3.00
2015,12,19,03,19,3.10
2015,12,19,03,20,3.10
2015,12,19,03,21,3.10
2015,12,19,03,22,3.10
2015,12,19,03,23,3.10
2015,12,19,03,24,3.00
2015,12,19,03,25,3.00
2015,12,19,03,26,2.90
2015,12,19,03,27,2.90
2015,12,19,03,28,2.90
2015,12,19,03,29,2.90
2015,12,19,03,30,2.80
2015,12,19,03,31,2.80
2015,12,19,03,32,2.80
2015,12,19,03,33,2.80
2015,12,19,03,34,2.90
2015,12,19,03,35,2.90
2015,12,19,03,36,2.90
2015,12,19,03,37,2.80
2015,12,19,03,38,2.80
2015,12,19,03,39,2.80
2015,12,19,03,40,2.80
2015,12,19,03,41,2.80
2015,12,19,03,42,2.80
2015,12,19,03,43,2.90
2015,12,19,03,44,2.90
2015,12,19,03,45,2.90
2015,12,19,03,46,3.00
2015,12,19,03,47,3.00
2015,12,19,03,48,3.00
2015,12,19,03,49,3.10
2015,12,19,03,50,3.10
2015,12,19,03,51,3.10
2015,12,19,03,52,3.10
2015,12,19,03,53,3.10
2015,12,19,03,54,3.10
2015,12,19,03,55,3.00
2015,12,19,03,56,3.00
2015,12,19,03,57,3.00
2015,12,19,03,58,3.10
2015,12,19,03,59,3.10
2015,12,19,04,00,3.10
2015,12,19,04,01,3.10
2015,12,19,04,02,3.10
2015,12,19,04,03,3.10
2015,12,19,04,04,3.10
2015,12,19,04,05,3.20
2015,12,19,04,06,3.20
2015,12,19,04,07,3.20
2015,12,19,04,08,3.20
2015,12,19,04,09,3.20
2015,12,19,04,10,3.20
2015,12,19,04,11,3.10
2015,12,19,04,12,3.10
2015,12,19,04,13,3.10
2015,12,19,04,14,3.10
2015,12,19,04,15,3.10
2015,12,19,04,16,3.10
2015,12,19,04,17,3.20
2015,12,19,04,18,3.20
2015,12,19,04,19,3.20
2015,12,19,04,20,3.20
2015,12,19,04,21,3.20
2015,12,19,04,22,3.20
2015,12,19,04,23,3.20
2015,12,19,04,24,3.20
2015,12,19,04,25,3.20
2015,12,19,04,26,3.20
2015,12,19,04,27,3.20
2015,12,19,04,28,3.20
2015,12,19,04,29,3.20
2015,12,19,04,30,3.20
2015,12,19,04,31,3.10
2015,12,19,04,32,3.10
2015,12,19,04,33,3.10
2015,12,19,04,34,3.10
2015,12,19,04,35,3.10
2015,12,19,04,36,3.10
2015,12,19,04,37,3.10
2015,12,19,04,38,3.10
2015,12,19,04,39,3.10
2015,12,19,04,40,3.10
2015,12,19,04,41,3.10
2015,12,19,04,42,3.10
2015,12,19,04,43,3.10
2015,12,19,04,44,3.10
2015,12,19,04,45,3.10
2015,12,19,04,46,3.10
2015,12,19,04,47,3.20
2015,12,19,04,48,3.20
2015,12,19,04,49,3.20
2015,12,19,04,50,3.20
2015,12,19,04,51,3.20
2015,12,19,04,52,3.30
2015,12,19,04,53,3.30
2015,12,19,04,54,3.30
2015,12,19,04,55,3.30
2015,12,19,04,56,3.30
2015,12,19,04,57,3.30
2015,12,19,04,58,3.20
2015,12,19,04,59,3.20
2015,12,19,05,00,3.20
2015,12,19,05,01,3.20
2015,12,19,05,02,3.20
2015,12,19,05,03,3.20
2015,12,19,05,04,3.20
2015,12,19,05,05,3.20
2015,12,19,05,06,3.20
2015,12,19,05,07,3.20
2015,12,19,05,08,3.30
2015,12,19,05,09,3.30
2015,12,19,05,10,3.30
2015,12,19,05,11,3.40
2015,12,19,05,12,3.40
2015,12,19,05,13,3.50
2015,12,19,05,14,3.60
2015,12,19,05,15,3.60
2015,12,19,05,16,3.70
2015,12,19,05,17,3.70
2015,12,19,05,18,3.80
2015,12,19,05,19,3.80
2015,12,19,05,20,3.80
2015,12,19,05,21,3.80
2015,12,19,05,22,3.90
2015,12,19,05,23,3.90
2015,12,19,05,24,3.90
2015,12,19,05,25,4.00
2015,12,19,05,26,4.00
2015,12,19,05,27,4.10
2015,12,19,05,28,4.10
2015,12,19,05,29,4.10
2015,12,19,05,30,4.10
2015,12,19,05,31,4.10
2015,12,19,05,32,4.10
2015,12,19,05,33,4.10
2015,12,19,05,34,4.10
2015,12,19,05,35,4.10
2015,12,19,05,36,4.10
2015,12,19,05,37,4.10
2015,12,19,05,38,4.10
2015,12,19,05,39,4.10
2015,12,19,05,40,4.20
2015,12,19,05,41,4.20
2015,12,19,05,42,4.20
2015,12,19,05,43,4.20
2015,12,19,05,44,4.20
2015,12,19,05,45,4.30
2015,12,19,05,46,4.30
2015,12,19,05,47,4.30
2015,12,19,05,48,4.30
2015,12,19,05,49,4.30
2015,12,19,05,50,4.30
2015,12,19,05,51,4.30
2015,12,19,05,52,4.30
2015,12,19,05,53,4.30
2015,12,19,05,54,4.30
2015,12,19,05,55,4.30
2015,12,19,05,56,4.30
2015,12,19,05,57,4.30
2015,12,19,05,58,4.20
2015,12,19,05,59,4.20
2015,12,19,06,00,4.20
2015,12,19,06,01,4.20
2015,12,19,06,02,4.30
2015,12,19,06,03,4.30
2015,12,19,06,04,4.30
2015,12,19,06,05,4.30
2015,12,19,06,06,4.30
2015,12,19,06,07,4.30
2015,12,19,06,08,4.30
2015,12,19,06,09,4.30
2015,12,19,06,10,4.30
2015,12,19,06,11,4.30
2015,12,19,06,12,4.30
2015,12,19,06,13,4.30
2015,12,19,06,14,4.30
2015,12,19,06,15,4.30
2015,12,19,06,16,4.30
2015,12,19,06,17,4.30
2015,12,19,06,18,4.30
2015,12,19,06,19,4.30
2015,12,19,06,20,4.30
2015,12,19,06,21,4.30
2015,12,19,06,22,4.30
2015,12,19,06,23,4.30
2015,12,19,06,24,4.30
2015,12,19,06,25,4.30
2015,12,19,06,26,4.30
2015,12,19,06,27,4.30
2015,12,19,06,28,4.30
2015,12,19,06,29,4.30
2015,12,19,06,30,4.30
2015,12,19,06,31,4.20
2015,12,19,06,32,4.20
2015,12,19,06,33,4.20
2015,12,19,06,34,4.20
2015,12,19,06,35,4.20
2015,12,19,06,36,4.10
2015,12,19,06,37,4.10
2015,12,19,06,38,4.10
2015,12,19,06,39,4.10
2015,12,19,06,40,4.10
2015,12,19,06,41,4.10
2015,12,19,06,42,4.10
2015,12,19,06,43,4.10
2015,12,19,06,44,4.00
2015,12,19,06,45,4.00
2015,12,19,06,46,4.00
2015,12,19,06,47,4.00
2015,12,19,06,48,4.00
2015,12,19,06,49,4.00
2015,12,19,06,50,4.00
2015,12,19,06,51,4.00
2015,12,19,06,52,4.00
2015,12,19,06,53,4.00
2015,12,19,06,54,4.00
2015,12,19,06,55,4.00
2015,12,19,06,56,4.00
2015,12,19,06,57,4.00
2015,12,19,06,58,3.90
2015,12,19,06,59,3.90
2015,12,19,07,00,3.90
2015,12,19,07,01,3.90
2015,12,19,07,02,3.90
2015,12,19,07,03,3.90
2015,12,19,07,04,3.90
2015,12,19,07,05,3.90
2015,12,19,07,06,3.90
2015,12,19,07,07,3.90
2015,12,19,07,08,3.90
2015,12,19,07,09,3.90
2015,12,19,07,10,3.80
2015,12,19,07,11,3.90
2015,12,19,07,12,3.90
2015,12,19,07,13,3.90
2015,12,19,07,14,3.90
2015,12,19,07,15,3.90
2015,12,19,07,16,3.90
2015,12,19,07,17,3.90
2015,12,19,07,18,3.90
2015,12,19,07,19,3.90
2015,12,19,07,20,3.90
2015,12,19,07,21,3.90
2015,12,19,07,22,3.90
2015,12,19,07,23,3.90
2015,12,19,07,24,3.90
2015,12,19,07,25,4.00
2015,12,19,07,26,4.00
2015,12,19,07,27,4.00
2015,12,19,07,28,4.00
2015,12,19,07,29,4.00
2015,12,19,07,30,4.10
2015,12,19,07,31,4.10
2015,12,19,07,32,4.10
2015,12,19,07,33,4.10
2015,12,19,07,34,4.10
2015,12,19,07,35,4.10
2015,12,19,07,36,4.10
2015,12,19,07,37,4.20
2015,12,19,07,38,4.20
2015,12,19,07,39,4.10
2015,12,19,07,40,4.10
2015,12,19,07,41,4.10
2015,12,19,07,42,4.10
2015,12,19,07,43,4.10
2015,12,19,07,44,4.10
2015,12,19,07,45,4.10
2015,12,19,07,46,4.10
2015,12,19,07,47,4.10
2015,12,19,07,48,4.10
2015,12,19,07,49,4.20
2015,12,19,07,50,4.20
2015,12,19,07,51,4.20
2015,12,19,07,52,4.20
2015,12,19,07,53,4.20
2015,12,19,07,54,4.20
2015,12,19,07,55,4.20
2015,12,19,07,56,4.20
2015,12,19,07,57,4.20
2015,12,19,07,58,4.10
2015,12,19,07,59,4.10
2015,12,19,08,00,4.10
2015,12,19,08,01,4.10
2015,12,19,08,02,4.10
2015,12,19,08,03,4.10
2015,12,19,08,04,4.00
2015,12,19,08,05,4.00
2015,12,19,08,06,4.00
2015,12,19,08,07,4.00
2015,12,19,08,08,4.00
2015,12,19,08,09,4.00
2015,12,19,08,10,4.00
2015,12,19,08,11,4.00
2015,12,19,08,12,4.00
2015,12,19,08,13,4.00
2015,12,19,08,14,4.00
2015,12,19,08,15,4.00
2015,12,19,08,16,4.00
2015,12,19,08,17,4.00
2015,12,19,08,18,4.00
2015,12,19,08,19,3.90
2015,12,19,08,20,3.90
2015,12,19,08,21,3.90
2015,12,19,08,22,3.90
2015,12,19,08,23,3.90
2015,12,19,08,24,3.90
2015,12,19,08,25,3.90
2015,12,19,08,26,3.90
2015,12,19,08,27,3.90
2015,12,19,08,28,3.90
2015,12,19,08,29,3.90
2015,12,19,08,30,3.90
2015,12,19,08,31,3.90
2015,12,19,08,32,3.90
2015,12,19,08,33,3.90
2015,12,19,08,34,3.90
2015,12,19,08,35,3.90
2015,12,19,08,36,3.90
2015,12,19,08,37,3.90
2015,12,19,08,38,3.90
2015,12,19,08,39,3.90
2015,12,19,08,40,3.90
2015,12,19,08,41,3.80
2015,12,19,08,42,3.80
2015,12,19,08,43,3.80
2015,12,19,08,44,3.80
2015,12,19,08,45,3.80
2015,12,19,08,46,3.90
2015,12,19,08,47,3.90
2015,12,19,08,48,3.90
2015,12,19,08,49,3.90
2015,12,19,08,50,3.90
2015,12,19,08,51,3.90
2015,12,19,08,52,4.00
2015,12,19,08,53,4.00
2015,12,19,08,54,4.00
2015,12,19,08,55,4.00
2015,12,19,08,56,4.10
2015,12,19,08,57,4.10
2015,12,19,08,58,4.10
2015,12,19,08,59,4.10
2015,12,19,09,00,4.10
2015,12,19,09,01,4.10
2015,12,19,09,02,4.10
2015,12,19,09,03,4.10
2015,12,19,09,04,4.10
2015,12,19,09,05,4.10
2015,12,19,09,06,4.20
2015,12,19,09,07,4.20
2015,12,19,09,08,4.20
2015,12,19,09,09,4.20
2015,12,19,09,10,4.20
2015,12,19,09,11,4.20
2015,12,19,09,12,4.30
2015,12,19,09,13,4.30
2015,12,19,09,14,4.30
2015,12,19,09,15,4.30
2015,12,19,09,16,4.30
2015,12,19,09,17,4.40
2015,12,19,09,18,4.40
2015,12,19,09,19,4.40
2015,12,19,09,20,4.40
2015,12,19,09,21,4.40
2015,12,19,09,22,4.50
2015,12,19,09,23,4.50
2015,12,19,09,24,4.50
2015,12,19,09,25,4.60
2015,12,19,09,26,4.60
2015,12,19,09,27,4.60
2015,12,19,09,28,4.70
2015,12,19,09,29,4.70
2015,12,19,09,30,4.70
2015,12,19,09,31,4.70
2015,12,19,09,32,4.70
2015,12,19,09,33,4.70
2015,12,19,09,34,4.70
2015,12,19,09,35,4.70
2015,12,19,09,36,4.70
2015,12,19,09,37,4.80
2015,12,19,09,38,4.80
2015,12,19,09,39,4.80
2015,12,19,09,40,4.80
2015,12,19,09,41,4.80
2015,12,19,09,42,4.80
2015,12,19,09,43,4.90
2015,12,19,09,44,4.90
2015,12,19,09,45,4.90
2015,12,19,09,46,4.90
2015,12,19,09,47,4.90
2015,12,19,09,48,4.90
2015,12,19,09,49,5.00
2015,12,19,09,50,5.00
2015,12,19,09,51,5.00
2015,12,19,09,52,5.00
2015,12,19,09,53,5.00
2015,12,19,09,54,5.10
2015,12,19,09,55,5.10
2015,12,19,09,56,5.10
2015,12,19,09,57,5.10
2015,12,19,09,58,5.10
2015,12,19,09,59,5.10
2015,12,19,10,00,5.10
2015,12,19,10,01,5.10
2015,12,19,10,02,5.10
2015,12,19,10,03,5.10
2015,12,19,10,04,5.20
2015,12,19,10,05,5.20
2015,12,19,10,06,5.20
2015,12,19,10,07,5.20
2015,12,19,10,08,5.20
2015,12,19,10,09,5.20
2015,12,19,10,10,5.20
2015,12,19,10,11,5.20
2015,12,19,10,12,5.30
2015,12,19,10,13,5.30
2015,12,19,10,14,5.30
2015,12,19,10,15,5.30
2015,12,19,10,16,5.30
2015,12,19,10,17,5.30
2015,12,19,10,18,5.30
2015,12,19,10,19,5.30
2015,12,19,10,20,5.40
2015,12,19,10,21,5.40
2015,12,19,10,22,5.40
2015,12,19,10,23,5.40
2015,12,19,10,24,5.40
2015,12,19,10,25,5.40
2015,12,19,10,26,5.40
2015,12,19,10,27,5.40
2015,12,19,10,28,5.40
2015,12,19,10,29,5.40
2015,12,19,10,30,5.40
2015,12,19,10,31,5.50
2015,12,19,10,32,5.50
2015,12,19,10,33,5.50
2015,12,19,10,34,5.50
2015,12,19,10,35,5.50
2015,12,19,10,36,5.50
2015,12,19,10,37,5.50
2015,12,19,10,38,5.50
2015,12,19,10,39,5.50
2015,12,19,10,40,5.50
2015,12,19,10,41,5.50
2015,12,19,10,42,5.50
2015,12,19,10,43,5.50
2015,12,19,10,44,5.60
2015,12,19,10,45,5.60
2015,12,19,10,46,5.60
2015,12,19,10,47,5.60
2015,12,19,10,48,5.60
2015,12,19,10,49,5.60
2015,12,19,10,50,5.60
2015,12,19,10,51,5.60
2015,12,19,10,52,5.60
2015,12,19,10,53,5.70
2015,12,19,10,54,5.70
2015,12,19,10,55,5.70
2015,12,19,10,56,5.70
2015,12,19,10,57,5.70
2015,12,19,10,58,5.70
2015,12,19,10,59,5.70
2015,12,19,11,00,5.70
2015,12,19,11,01,5.70
2015,12,19,11,02,5.80
2015,12,19,11,03,5.80
2015,12,19,11,04,5.80
2015,12,19,11,05,5.80
2015,12,19,11,06,5.80
2015,12,19,11,07,5.80
2015,12,19,11,08,5.80
2015,12,19,11,09,5.80
2015,12,19,11,10,5.80
2015,12,19,11,11,5.80
2015,12,19,11,12,5.80
2015,12,19,11,13,5.80
2015,12,19,11,14,5.80
2015,12,19,11,15,5.90
2015,12,19,11,16,5.90
2015,12,19,11,17,5.90
2015,12,19,11,18,5.90
2015,12,19,11,19,5.90
2015,12,19,11,20,5.90
2015,12,19,11,21,5.90
2015,12,19,11,22,6.00
2015,12,19,11,23,6.00
2015,12,19,11,24,6.00
2015,12,19,11,25,6.00
2015,12,19,11,26,6.00
2015,12,19,11,27,6.10
2015,12,19,11,28,6.10
2015,12,19,11,29,6.10
2015,12,19,11,30,6.10
2015,12,19,11,31,6.10
2015,12,19,11,32,6.10
2015,12,19,11,33,6.10
2015,12,19,11,34,6.10
2015,12,19,11,35,6.10
2015,12,19,11,36,6.10
2015,12,19,11,37,6.10
2015,12,19,11,38,6.10
2015,12,19,11,39,6.10
2015,12,19,11,40,6.10
2015,12,19,11,41,6.00
2015,12,19,11,42,6.00
2015,12,19,11,43,6.00
2015,12,19,11,44,6.00
2015,12,19,11,45,6.00
2015,12,19,11,46,5.90
2015,12,19,11,47,5.90
2015,12,19,11,48,5.90
2015,12,19,11,49,5.90
2015,12,19,11,50,5.80
2015,12,19,11,51,5.80
2015,12,19,11,52,5.80
2015,12,19,11,53,5.80
2015,12,19,11,54,5.80
2015,12,19,11,55,5.80
2015,12,19,11,56,5.70
2015,12,19,11,57,5.70
2015,12,19,11,58,5.70
2015,12,19,11,59,5.70
2015,12,19,12,00,5.70
2015,12,19,12,01,5.70
2015,12,19,12,02,5.70
2015,12,19,12,03,5.70
2015,12,19,12,04,5.70
2015,12,19,12,05,5.70
2015,12,19,12,06,5.70
2015,12,19,12,07,5.70
2015,12,19,12,08,5.70
2015,12,19,12,09,5.70
2015,12,19,12,10,5.70
2015,12,19,12,11,5.70
2015,12,19,12,12,5.70
2015,12,19,12,13,5.70
2015,12,19,12,14,5.70
2015,12,19,12,15,5.70
2015,12,19,12,16,5.70
2015,12,19,12,17,5.70
2015,12,19,12,18,5.70
2015,12,19,12,19,5.70
2015,12,19,12,20,5.70
2015,12,19,12,21,5.70
2015,12,19,12,22,5.70
2015,12,19,12,23,5.70
2015,12,19,12,24,5.70
2015,12,19,12,25,5.70
2015,12,19,12,26,5.70
2015,12,19,12,27,5.80
2015,12,19,12,28,5.80
2015,12,19,12,29,5.80
2015,12,19,12,30,5.80
2015,12,19,12,31,5.80
2015,12,19,12,32,5.80
2015,12,19,12,33,5.80
2015,12,19,12,34,5.80
2015,12,19,12,35,5.80
2015,12,19,12,36,5.80
2015,12,19,12,37,5.80
2015,12,19,12,38,5.80
2015,12,19,12,39,5.80
2015,12,19,12,40,5.80
2015,12,19,12,41,5.80
2015,12,19,12,42,5.80
2015,12,19,12,43,5.90
2015,12,19,12,44,5.90
2015,12,19,12,45,5.90
2015,12,19,12,46,5.90
2015,12,19,12,47,5.90
2015,12,19,12,48,5.90
2015,12,19,12,49,5.90
2015,12,19,12,50,5.90
2015,12,19,12,51,5.90
2015,12,19,12,52,5.90
2015,12,19,12,53,5.90
2015,12,19,12,54,5.90
2015,12,19,12,55,5.90
2015,12,19,12,56,5.90
2015,12,19,12,57,5.90
2015,12,19,12,58,5.90
2015,12,19,12,59,5.90
2015,12,19,13,00,5.90
2015,12,19,13,01,5.90
2015,12,19,13,02,5.90
2015,12,19,13,03,5.90
2015,12,19,13,04,5.90
2015,12,19,13,05,5.90
2015,12,19,13,06,5.90
2015,12,19,13,07,5.90
2015,12,19,13,08,5.90
2015,12,19,13,09,5.90
2015,12,19,13,10,5.90
2015,12,19,13,11,5.90
2015,12,19,13,12,5.90
2015,12,19,13,13,5.90
2015,12,19,13,14,5.90
2015,12,19,13,15,5.90
2015,12,19,13,16,5.90
2015,12,19,13,17,5.90
2015,12,19,13,18,5.90
2015,12,19,13,19,5.90
2015,12,19,13,20,5.90
2015,12,19,13,21,5.90
2015,12,19,13,22,5.90
2015,12,19,13,23,5.90
2015,12,19,13,24,5.90
2015,12,19,13,25,5.90
2015,12,19,13,26,5.90
2015,12,19,13,27,5.90
2015,12,19,13,28,5.90
2015,12,19,13,29,5.90
2015,12,19,13,30,5.90
2015,12,19,13,31,5.90
2015,12,19,13,32,5.90
2015,12,19,13,33,5.90
2015,12,19,13,34,5.90
2015,12,19,13,35,5.90
2015,12,19,13,36,5.90
2015,12,19,13,37,5.90
2015,12,19,13,38,5.90
2015,12,19,13,39,5.90
2015,12,19,13,40,5.90
2015,12,19,13,41,5.90
2015,12,19,13,42,5.90
2015,12,19,13,43,5.90
2015,12,19,13,44,6.00
2015,12,19,13,45,6.00
2015,12,19,13,46,6.00
2015,12,19,13,47,6.00
2015,12,19,13,48,6.00
2015,12,19,13,49,6.00
2015,12,19,13,50,6.00
2015,12,19,13,51,6.00
2015,12,19,13,52,6.00
2015,12,19,13,53,6.00
2015,12,19,13,54,6.00
2015,12,19,13,55,6.00
2015,12,19,13,56,6.00
2015,12,19,13,57,6.10
2015,12,19,13,58,6.10
2015,12,19,13,59,6.10
2015,12,19,14,00,6.10
2015,12,19,14,01,6.10
2015,12,19,14,02,6.10
2015,12,19,14,03,6.10
2015,12,19,14,04,6.10
2015,12,19,14,05,6.10
2015,12,19,14,06,6.10
2015,12,19,14,07,6.10
2015,12,19,14,08,6.10
2015,12,19,14,09,6.10
2015,12,19,14,10,6.10
2015,12,19,14,11,6.10
2015,12,19,14,12,6.10
2015,12,19,14,13,6.10
2015,12,19,14,14,6.10
2015,12,19,14,15,6.10
2015,12,19,14,16,6.10
2015,12,19,14,17,6.10
2015,12,19,14,18,6.10
2015,12,19,14,19,6.10
2015,12,19,14,20,6.10
2015,12,19,14,21,6.10
2015,12,19,14,22,6.10
2015,12,19,14,23,6.10
2015,12,19,14,24,6.10
2015,12,19,14,25,6.10
2015,12,19,14,26,6.10
2015,12,19,14,27,6.10
2015,12,19,14,28,6.10
2015,12,19,14,29,6.10
2015,12,19,14,30,6.10
2015,12,19,14,31,6.10
2015,12,19,14,32,6.10
2015,12,19,14,33,6.10
2015,12,19,14,34,6.10
2015,12,19,14,35,6.10
2015,12,19,14,36,6.10
2015,12,19,14,37,6.10
2015,12,19,14,38,6.10
2015,12,19,14,39,6.10
2015,12,19,14,40,6.10
2015,12,19,14,41,6.10
2015,12,19,14,42,6.10
2015,12,19,14,43,6.00
2015,12,19,14,44,6.00
2015,12,19,14,45,6.00
2015,12,19,14,46,6.00
2015,12,19,14,47,6.00
2015,12,19,14,48,6.00
2015,12,19,14,49,5.90
2015,12,19,14,50,5.90
2015,12,19,14,51,5.90
2015,12,19,14,52,5.90
2015,12,19,14,53,5.90
2015,12,19,14,54,5.90
2015,12,19,14,55,5.90
2015,12,19,14,56,5.90
2015,12,19,14,57,5.90
2015,12,19,14,58,5.90
2015,12,19,14,59,5.90
2015,12,19,15,00,5.90
2015,12,19,15,01,5.90
2015,12,19,15,02,5.90
2015,12,19,15,03,5.90
2015,12,19,15,04,5.90
2015,12,19,15,05,5.90
2015,12,19,15,06,5.90
2015,12,19,15,07,5.90
2015,12,19,15,08,5.90
2015,12,19,15,09,5.90
2015,12,19,15,10,5.90
2015,12,19,15,11,5.80
2015,12,19,15,12,5.80
2015,12,19,15,13,5.80
2015,12,19,15,14,5.80
2015,12,19,15,15,5.80
2015,12,19,15,16,5.80
2015,12,19,15,17,5.80
2015,12,19,15,18,5.80
2015,12,19,15,19,5.70
2015,12,19,15,20,5.70
2015,12,19,15,21,5.70
2015,12,19,15,22,5.70
2015,12,19,15,23,5.70
2015,12,19,15,24,5.70
2015,12,19,15,25,5.70
2015,12,19,15,26,5.70
2015,12,19,15,27,5.70
2015,12,19,15,28,5.70
2015,12,19,15,29,5.60
2015,12,19,15,30,5.60
2015,12,19,15,31,5.60
2015,12,19,15,32,5.60
2015,12,19,15,33,5.60
2015,12,19,15,34,5.50
2015,12,19,15,35,5.50
2015,12,19,15,36,5.50
2015,12,19,15,37,5.50
2015,12,19,15,38,5.40
2015,12,19,15,39,5.40
2015,12,19,15,40,5.40
2015,12,19,15,41,5.40
2015,12,19,15,42,5.40
2015,12,19,15,43,5.40
2015,12,19,15,44,5.40
2015,12,19,15,45,5.40
2015,12,19,15,46,5.40
2015,12,19,15,47,5.30
2015,12,19,15,48,5.30
2015,12,19,15,49,5.30
2015,12,19,15,50,5.30
2015,12,19,15,51,5.30
2015,12,19,15,52,5.30
2015,12,19,15,53,5.30
2015,12,19,15,54,5.30
2015,12,19,15,55,5.30
2015,12,19,15,56,5.30
2015,12,19,15,57,5.30
2015,12,19,15,58,5.30
2015,12,19,15,59,5.30
2015,12,19,16,00,5.30
2015,12,19,16,01,5.30
2015,12,19,16,02,5.30
2015,12,19,16,03,5.30
2015,12,19,16,04,5.30
2015,12,19,16,05,5.30
2015,12,19,16,06,5.30
2015,12,19,16,07,5.20
2015,12,19,16,08,5.20
2015,12,19,16,09,5.20
2015,12,19,16,10,5.20
2015,12,19,16,11,5.20
2015,12,19,16,12,5.20
2015,12,19,16,13,5.20
2015,12,19,16,14,5.20
2015,12,19,16,15,5.20
2015,12,19,16,16,5.20
2015,12,19,16,17,5.20
2015,12,19,16,18,5.20
2015,12,19,16,19,5.20
2015,12,19,16,20,5.10
2015,12,19,16,21,5.10
2015,12,19,16,22,5.10
2015,12,19,16,23,5.10
2015,12,19,16,24,5.10
2015,12,19,16,25,5.10
2015,12,19,16,26,5.10
2015,12,19,16,27,5.10
2015,12,19,16,28,5.10
2015,12,19,16,29,5.10
2015,12,19,16,30,5.10
2015,12,19,16,31,5.10
2015,12,19,16,32,5.10
2015,12,19,16,33,5.10
2015,12,19,16,34,5.10
2015,12,19,16,35,5.10
2015,12,19,16,36,5.10
2015,12,19,16,37,5.10
2015,12,19,16,38,5.10
2015,12,19,16,39,5.10
2015,12,19,16,40,5.10
2015,12,19,16,41,5.10
2015,12,19,16,42,5.10
2015,12,19,16,43,5.10
2015,12,19,16,44,5.10
2015,12,19,16,45,5.00
2015,12,19,16,46,5.10
2015,12,19,16,47,5.10
2015,12,19,16,48,5.10
2015,12,19,16,49,5.10
2015,12,19,16,50,5.10
2015,12,19,16,51,5.10
2015,12,19,16,52,5.10
2015,12,19,16,53,5.10
2015,12,19,16,54,5.10
2015,12,19,16,55,5.10
2015,12,19,16,56,5.10
2015,12,19,16,57,5.00
2015,12,19,16,58,5.00
2015,12,19,16,59,5.00
2015,12,19,17,00,5.00
2015,12,19,17,01,5.00
2015,12,19,17,02,5.00
2015,12,19,17,03,5.00
2015,12,19,17,04,5.00
2015,12,19,17,05,5.00
2015,12,19,17,06,4.90
2015,12,19,17,07,4.90
2015,12,19,17,08,4.90
2015,12,19,17,09,4.90
2015,12,19,17,10,4.90
2015,12,19,17,11,4.90
2015,12,19,17,12,4.90
2015,12,19,17,13,4.90
2015,12,19,17,14,4.90
2015,12,19,17,15,4.90
2015,12,19,17,16,4.90
2015,12,19,17,17,4.90
2015,12,19,17,18,4.90
2015,12,19,17,19,4.90
2015,12,19,17,20,4.90
2015,12,19,17,21,4.90
2015,12,19,17,22,4.90
2015,12,19,17,23,4.90
2015,12,19,17,24,4.90
2015,12,19,17,25,4.90
2015,12,19,17,26,4.90
2015,12,19,17,27,4.90
2015,12,19,17,28,4.90
2015,12,19,17,29,4.90
2015,12,19,17,30,4.90
2015,12,19,17,31,5.00
2015,12,19,17,32,4.90
2015,12,19,17,33,5.00
2015,12,19,17,34,5.00
2015,12,19,17,35,5.00
2015,12,19,17,36,5.00
2015,12,19,17,37,5.00
2015,12,19,17,38,5.10
2015,12,19,17,39,5.10
2015,12,19,17,40,5.10
2015,12,19,17,41,5.10
2015,12,19,17,42,5.10
2015,12,19,17,43,5.10
2015,12,19,17,44,5.10
2015,12,19,17,45,5.10
2015,12,19,17,46,5.10
2015,12,19,17,47,5.10
2015,12,19,17,48,5.20
2015,12,19,17,49,5.20
2015,12,19,17,50,5.20
2015,12,19,17,51,5.20
2015,12,19,17,52,5.20
2015,12,19,17,53,5.20
2015,12,19,17,54,5.20
2015,12,19,17,55,5.20
2015,12,19,17,56,5.20
2015,12,19,17,57,5.20
2015,12,19,17,58,5.20
2015,12,19,17,59,5.30
2015,12,19,18,00,5.30
2015,12,19,18,01,5.30
2015,12,19,18,02,5.30
2015,12,19,18,03,5.30
2015,12,19,18,04,5.30
2015,12,19,18,05,5.30
2015,12,19,18,06,5.30
2015,12,19,18,07,5.30
2015,12,19,18,08,5.30
2015,12,19,18,09,5.30